Location: Capelle
(50.3413°N, 1.9974°E)
Time: 19:37:48
(UTC+00:00)

Meteor 1-12 Rocket - Pass Details

Date: 12 January 2026
Orbit: 853 x 925 km, 81.2° (Epoch: 15 February)

Event Time Altitude Azimuth Distance (km) Brightness Sun altitude
Rises 17:49:56 0° 350° (N) 3,455 7.3 -14.8°
Reaches altitude 10° 17:52:26 10° 355° (N) 2,507 6.6 -15.2°
Maximum altitude 17:58:00 55° 73° (ENE) 1,028 4.3 -16.1°
Drops below altitude 10° 18:03:30 10° 150° (SSE) 2,480 6.5 -16.9°
Sets 18:05:59 0° 155° (SSE) 3,414 7.2 -17.3°
